This demonstration page uses our WeatherBlox Daily Observations layout. Learn more.

Left ArrowRight Arrow

30.21309, -93.2044

Hourly Observations for August 9, 2022

Temp ( °F °C ) Dew Point ( °F °C ) Humidity (%) Winds ( mph kmh ) Pressure ( in mb ) Visibility ( mi km ) Precip ( " mm )
12:15 am 00:15 Clear 77 25.1 75 23.8 93 93 ESE 3 6 30.07 1018 10 16 0.00 0.00
12:35 am 00:35 Clear 77 25 75 23.8 93 93 E 3 6 30.07 1018 10 16 0.00 0.00
12:55 am 00:55 Clear 77 24.8 75 23.7 94 94 E 3 6 30.07 1018 10 16 0.00 0.00
1:15 am 01:15 Clear 76 24.4 74 23.3 94 94 SE 5 7 30.05 1018 10 16 0.00 0.00
1:35 am 01:35 Clear 76 24.6 74 23.5 94 94 Calm 30.05 1018 10 16 0.00 0.00
1:55 am 01:55 Clear 76 24.4 74 23.4 94 94 E 5 7 30.04 1017 10 16 0.00 0.00
2:15 am 02:15 Clear 76 24.5 74 23.5 94 94 SSE 6 9 30.02 1017 10 16 0.00 0.00
2:35 am 02:35 Clear 76 24.6 74 23.6 94 94 SSE 6 9 30.02 1017 10 16 0.00 0.00
2:55 am 02:55 Clear 76 24.3 74 23.4 95 95 SSE 5 7 30.01 1016 10 16 0.00 0.00
3:15 am 03:15 Clear 76 24.5 74 23.6 95 95 Calm 30.02 1017 10 16 0.00 0.00
3:35 am 03:35 Clear 76 24.7 75 23.7 94 94 Calm 30.01 1016 10 16 0.00 0.00
3:55 am 03:55 Clear with Mist and Fog 76 24.5 74 23.6 95 95 Calm 30.01 1016 4 6 0.00 0.00
4:15 am 04:15 Clear with Mist and Fog 76 24.2 74 23.3 95 95 E 6 9 30.02 1017 7 11 0.00 0.00
4:35 am 04:35 Clear with Mist and Fog 75 23.9 74 23.1 95 95 ENE 5 7 30.03 1017 5 8 0.00 0.00
4:55 am 04:55 Clear with Mist and Fog 75 24.1 74 23.3 95 95 ESE 7 11 30.03 1017 5 8 0.00 0.00
5:15 am 05:15 Clear with Mist and Fog 76 24.4 74 23.6 95 95 E 6 9 30.03 1017 7 11 0.00 0.00
5:35 am 05:35 Clear with Mist and Fog 76 24.3 74 23.5 95 95 E 5 7 30.04 1017 5 8 0.00 0.00
6:00 am 06:00 Mostly Clear 75 24 73 23 94 94 Calm 30.04 1017 10 16 0.00 0.00
6:45 am 06:45 Partly Cloudy 75 24 73 23 94 94 Calm 30.07 1018 7 11 0.00 0.00
7:45 am 07:45 Mostly Sunny 77 25 75 24 94 94 E 6 9 30.08 1019 7 11 0.00 0.00
8:50 am 08:50 Mostly Sunny 82 28 75 24 79 79 Calm 30.00 1016 10 16 0.00 0.00
9:48 am 09:48 Mostly Sunny 86 30 75 24 70 70 Calm 30.09 1019 10 16 0.00 0.00
10:55 am 10:55 Mostly Cloudy 86 30 75 24 70 70 Calm 30.10 1019 10 16 0.00 0.00
11:47 am 11:47 Mostly Cloudy 90 32 73 23 59 59 SSE 8 13 30.10 1019 10 16 0.00 0.00
12:45 pm 12:45 Mostly Cloudy with Showers 88 31 73 23 63 63 SSW 13 20 30.08 1019 7 11 0.00 0.00
1:51 pm 13:51 Mostly Cloudy with Thunderstorms 84 29 75 24 74 74 E 21 33 30.08 1019 7 11 0.00 0.00
2:52 pm 14:52 Partly Cloudy 82 28 72 22 70 70 ESE 8 13 30.05 1018 10 16 0.00 0.00
3:49 pm 15:49 Partly Cloudy 88 31 75 24 66 66 SE 7 11 30.03 1017 10 16 0.00 0.00
4:55 pm 16:55 Mostly Sunny 90 32 75 24 63 63 SE 9 15 30.01 1016 10 16 0.00 0.00
5:55 pm 17:55 Mostly Sunny 88 31 73 23 63 63 S 9 15 30.01 1016 10 16 0.00 0.00
6:54 pm 18:54 Mostly Sunny 88 31 75 24 66 66 SSE 6 9 30.01 1016 10 16 0.00 0.00
7:52 pm 19:52 Mostly Sunny 82 28 75 24 79 79 SSE 7 11 30.02 1017 10 16 0.00 0.00
8:49 pm 20:49 Mostly Clear 81 27 75 24 84 84 ESE 5 7 30.03 1017 10 16 0.00 0.00
9:58 pm 21:58 Mostly Clear 79 26 75 24 89 89 Calm 30.04 1017 10 16 0.00 0.00
10:15 pm 22:15 Partly Cloudy 79 26.1 76 24.2 89 89 ESE 7 11 30.04 1017 10 16 0.00 0.00
10:35 pm 22:35 Mostly Cloudy 80 26.4 76 24.4 89 89 E 8 13 30.06 1018 10 16 0.00 0.00
10:55 pm 22:55 Cloudy 79 26.1 73 22.8 82 82 ENE 7 11 30.06 1018 10 16 0.00 0.00
11:15 pm 23:15 Partly Cloudy 78 25.3 72 22.1 82 82 ENE 6 9 30.07 1018 10 16 0.00 0.00
11:35 pm 23:35 Clear 77 25 72 22.1 84 84 ENE 5 7 30.06 1018 10 16 0.00 0.00
11:55 pm 23:55 Clear 76 24.3 72 22.1 88 88 SE 3 6 30.04 1017 10 16 0.00 0.00

Powered by AerisWeather